Location: *
(44.1392°N, 4.8079°E)
Time: 22:49:10
(UTC+00:00)

Cosmos 2263 - Pass Details

Date: 21 June 2021
Orbit: 832 x 865 km, 70.9° (Epoch: 01 August)

Event Time Altitude Azimuth Distance (km) Brightness Sun altitude
Rises 00:28:42 0° 334° (NNW) 3,421 8.2 -21.6°
Reaches altitude 10° 00:31:10 10° 335° (NNW) 2,477 7.3 -21.5°
Maximum altitude 00:36:52 89° 61° (ENE) 847 4.1 -21.3°
Enters shadow 00:39:18 36° 155° (SSE) 1,306 4.8 -21.2°
